| time (UTC) | temp F | wind direction | speed MPH | gust MPH | rain 1hr in | rain 24hr in | rain mn in | humidity % | barometer mb |
| 20260504050242 | 59 | 39 | 0.0 | 0.0 | 0.00 | 0.02 | 0.00 | 1012.7 | |
| 20260504045244 | 59 | 319 | 3.0 | 2.0 | 0.00 | 0.02 | 0.00 | 1012.8 | |
| 20260504044247 | 59 | 343 | 3.0 | 3.0 | 0.00 | 0.02 | 0.00 | 1012.8 | |
| 20260504043243 | 59 | 350 | 0.0 | 0.0 | 0.00 | 0.02 | 0.00 | 1013.0 | |
| 20260504042246 | 59 | 350 | 2.0 | 0.0 | 0.00 | 0.02 | 0.00 | 1013.0 | |
| 20260504041248 | 59 | 34 | 0.0 | 0.0 | 0.00 | 0.02 | 0.00 | 1012.9 | |
| 20260504040247 | 59 | 34 | 0.0 | 0.0 | 0.00 | 0.02 | 0.00 | 1012.9 | |
| 20260504035250 | 59 | 34 | 0.0 | 0.0 | 0.00 | 0.02 | 0.00 | 1012.9 | |
| 20260504034252 | 59 | 34 | 0.0 | 0.0 | 0.00 | 0.02 | 0.00 | 1012.8 | |
| 20260504033255 | 59 | 34 | 0.0 | 0.0 | 0.00 | 0.02 | 0.00 | 1012.8 | |
| 20260504032247 | 59 | 34 | 0.0 | 0.0 | 0.00 | 0.02 | 0.00 | 1012.9 | |
| 20260504030252 | 59 | 53 | 1.0 | 2.0 | 0.00 | 0.02 | 0.00 | 1013.0 | |
| 20260504025255 | 59 | 121 | 1.0 | 0.0 | 0.00 | 0.02 | 0.00 | 1013.0 | |
| 20260504024258 | 59 | 39 | 0.0 | 0.0 | 0.00 | 0.02 | 0.00 | 1013.0 | |
| 20260504023300 | 59 | 39 | 0.0 | 0.0 | 0.00 | 0.02 | 0.00 | 1012.9 | |
| 20260504022304 | 59 | 39 | 0.0 | 0.0 | 0.00 | 0.02 | 0.00 | 1012.8 | |
| 20260504021252 | 59 | 38 | 0.0 | 0.0 | 0.00 | 0.02 | 0.00 | 1012.9 | |
| 20260504020251 | 59 | 111 | 2.0 | 2.0 | 0.00 | 0.02 | 0.00 | 1013.0 | |
| 20260504015254 | 59 | 138 | 3.0 | 3.0 | 0.00 | 0.02 | 0.00 | 1013.2 | |
| 20260504014256 | 59 | 246 | 0.0 | 0.0 | 0.00 | 0.02 | 0.00 | 1013.2 | |
| 20260504013255 | 59 | 246 | 0.0 | 0.0 | 0.00 | 0.02 | 0.00 | 1013.1 | |
| 20260504012257 | 59 | 246 | 0.0 | 0.0 | 0.00 | 0.02 | 0.00 | 1013.3 | |
| 20260504011251 | 59 | 263 | 1.0 | 2.0 | 0.00 | 0.02 | 0.00 | 1013.4 | |
| 20260504010244 | 59 | 197 | 0.0 | 0.0 | 0.00 | 0.02 | 0.00 | 1013.4 | |
| 20260504005247 | 59 | 208 | 0.0 | 0.0 | 0.00 | 0.02 | 0.00 | 1013.5 | |
| 20260504004250 | 59 | 245 | 1.0 | 2.0 | 0.00 | 0.02 | 0.00 | 1013.7 | |
| 20260504003252 | 59 | 120 | 1.0 | 2.0 | 0.00 | 0.02 | 0.00 | 1013.6 | |
| 20260504002255 | 59 | 75 | 2.0 | 2.0 | 0.00 | 0.02 | 0.00 | 1013.8 | |
| 20260504001257 | 59 | 215 | 0.0 | 0.0 | 0.00 | 0.02 | 0.00 | 1013.8 | |
| 20260504000300 | 59 | 150 | 0.0 | 0.0 | 0.00 | 0.02 | 0.00 | 1013.9 | |
| 20260503235253 | 59 | 224 | 2.0 | 1.0 | 0.00 | 0.02 | 0.00 | 1013.8 | |
| 20260503234256 | 59 | 191 | 0.0 | 0.0 | 0.00 | 0.02 | 0.00 | 1013.8 | |
| 20260503233254 | 59 | 204 | 1.0 | 1.0 | 0.00 | 0.02 | 0.00 | 1014.0 | |
| 20260503232256 | 60 | 146 | 0.0 | 0.0 | 0.00 | 0.02 | 0.00 | 1013.9 | |
| 20260503231252 | 60 | 170 | 0.0 | 1.0 | 0.00 | 0.02 | 0.00 | 1014.0 | |
| 20260503230254 | 59 | 198 | 0.0 | 0.0 | 0.00 | 0.02 | 0.00 | 1014.0 | |
| 20260503225252 | 60 | 170 | 0.0 | 3.0 | 0.00 | 0.02 | 0.00 | 1014.0 | |
| 20260503224248 | 59 | 205 | 2.0 | 3.0 | 0.00 | 0.02 | 0.00 | 1014.0 | |
| 20260503223251 | 60 | 179 | 3.0 | 2.0 | 0.00 | 0.02 | 0.00 | 1013.9 | |
| 20260503222254 | 60 | 149 | 0.0 | 4.0 | 0.00 | 0.02 | 0.00 | 1013.9 | |
| 20260503221256 | 60 | 69 | 3.0 | 4.0 | 0.00 | 0.02 | 0.00 | 1013.9 | |
| 20260503220259 | 60 | 63 | 4.0 | 7.0 | 0.00 | 0.02 | 0.00 | 1013.6 | |
| 20260503215258 | 61 | 75 | 3.0 | 5.0 | 0.00 | 0.00 | 0.02 | 1013.8 | |
| 20260503214301 | 61 | 45 | 6.0 | 8.0 | 0.00 | 0.00 | 0.02 | 1013.8 | |
| 20260503213257 | 61 | 165 | 1.0 | 4.0 | 0.00 | 0.00 | 0.02 | 1014.0 | |
| 20260503212300 | 61 | 121 | 1.0 | 1.0 | 0.00 | 0.00 | 0.02 | 1013.9 | |
| 20260503211303 | 61 | 69 | 3.0 | 4.0 | 0.00 | 0.00 | 0.02 | 1014.1 | |
| 20260503210305 | 62 | 124 | 2.0 | 1.0 | 0.00 | 0.00 | 0.02 | 1014.1 | |
| 20260503205255 | 61 | 205 | 2.0 | 2.0 | 0.00 | 0.00 | 0.02 | 1014.1 | |
| 20260503204246 | 61 | 233 | 0.0 | 0.0 | 0.00 | 0.00 | 0.02 | 1014.1 | |
| 20260503203245 | 62 | 239 | 0.0 | 0.0 | 0.00 | 0.00 | 0.02 | 1014.0 | |
| 20260503202241 | 62 | 239 | 0.0 | 0.0 | 0.00 | 0.00 | 0.02 | 1014.0 | |
| 20260503201241 | 61 | 221 | 0.0 | 0.0 | 0.00 | 0.00 | 0.02 | 1014.1 | |
| 20260503200243 | 61 | 221 | 0.0 | 0.0 | 0.00 | 0.00 | 0.02 | 1014.1 | |
| 20260503195243 | 61 | 187 | 1.0 | 1.0 | 0.00 | 0.00 | 0.02 | 1014.0 | |
| 20260503194241 | 61 | 181 | 0.0 | 3.0 | 0.00 | 0.00 | 0.02 | 1014.0 | |
| 20260503193243 | 61 | 224 | 3.0 | 2.0 | 0.00 | 0.00 | 0.02 | 1013.9 | |
| 20260503192245 | 61 | 132 | 3.0 | 3.0 | 0.00 | 0.00 | 0.02 | 1013.7 | |
| 20260503191241 | 62 | 181 | 3.0 | 3.0 | 0.00 | 0.00 | 0.02 | 1013.6 | |
| 20260503190243 | 62 | 120 | 2.0 | 4.0 | 0.00 | 0.00 | 0.02 | 1013.6 | |
| 20260503185243 | 62 | 129 | 4.0 | 5.0 | 0.00 | 0.00 | 0.02 | 1013.5 | |
| 20260503184242 | 62 | 122 | 3.0 | 4.0 | 0.00 | 0.00 | 0.02 | 1013.5 | |
| 20260503183244 | 62 | 124 | 4.0 | 3.0 | 0.00 | 0.00 | 0.02 | 1013.5 | |
| 20260503182246 | 63 | 127 | 3.0 | 2.0 | 0.00 | 0.00 | 0.02 | 1013.6 | |
| 20260503181248 | 63 | 212 | 4.0 | 2.0 | 0.00 | 0.00 | 0.02 | 1013.3 | |
| 20260503180243 | 62 | 153 | 3.0 | 5.0 | 0.00 | 0.00 | 0.02 | 1013.3 | |
| 20260503175243 | 63 | 89 | 3.0 | 1.0 | 0.00 | 0.00 | 0.02 | 1013.6 | |
| 20260503174243 | 63 | 150 | 4.0 | 5.0 | 0.00 | 0.00 | 0.02 | 1013.6 | |
| 20260503173243 | 63 | 82 | 3.0 | 3.0 | 0.00 | 0.00 | 0.02 | 1013.3 | |
| 20260503172246 | 63 | 128 | 4.0 | 2.0 | 0.00 | 0.00 | 0.02 | 1013.1 | |
| 20260503171248 | 63 | 73 | 6.0 | 7.0 | 0.00 | 0.00 | 0.02 | 1013.1 | |
| 20260503170251 | 63 | 91 | 5.0 | 4.0 | 0.00 | 0.00 | 0.02 | 1013.1 | |
| 20260503150244 | 66 | 96 | 4.0 | 1.0 | 0.00 | 0.00 | 0.02 | 1012.9 | |
| 20260503140240 | 67 | 107 | 4.0 | 5.0 | 0.00 | 0.00 | 0.02 | 1013.9 | |
| 20260503131246 | 67 | 205 | 7.0 | 2.0 | 0.00 | 0.00 | 0.02 | 1014.8 | |
| 20260503130248 | 67 | 128 | 4.0 | 6.0 | 0.00 | 0.00 | 0.02 | 1014.9 | |
| 20260503110242 | 63 | 103 | 5.0 | 5.0 | 0.02 | 0.00 | 0.02 | 1015.8 | |
| 20260503100248 | 66 | 128 | 4.0 | 4.0 | 0.00 | 0.00 | 0.00 | 1016.3 | |
| 20260503090245 | 65 | 132 | 3.0 | 5.0 | 0.00 | 0.00 | 0.00 | 1016.0 | |
| 20260503081249 | 65 | 82 | 5.0 | 6.0 | 0.00 | 0.00 | 0.00 | 1016.2 | |
| 20260503080252 | 65 | 90 | 5.0 | 8.0 | 0.00 | 0.00 | 0.00 | 1016.2 | |
| 20260503072244 | 63 | 79 | 5.0 | 3.0 | 0.00 | 0.00 | 0.00 | 1016.2 | |
| 20260503071244 | 63 | 97 | 5.0 | 4.0 | 0.00 | 0.00 | 0.00 | 1016.4 | |
| 20260503070243 | 63 | 70 | 1.0 | 5.0 | 0.00 | 0.00 | 0.00 | 1016.2 | |
| 20260503060241 | 62 | 76 | 0.0 | 2.0 | 0.00 | 0.00 | 0.00 | 1016.0 | |
| 20260503054244 | 61 | 266 | 0.0 | 0.0 | 0.00 | 0.00 | 0.00 | 1016.0 | |
| 20260503053247 | 61 | 69 | 0.0 | 0.0 | 0.00 | 0.00 | 0.00 | 1015.8 | |
| 20260503052248 | 62 | 80 | 1.0 | 2.0 | 0.00 | 0.00 | 0.00 | 1015.8 |